This demonstration page uses our WeatherBlox Daily Observations layout. Learn more.

Left ArrowRight Arrow

40.97296, -117.73568

Hourly Observations for May 4, 2022

Temp ( °F °C ) Dew Point ( °F °C ) Humidity (%) Winds ( mph kmh ) Pressure ( in mb ) Visibility ( mi km ) Precip ( " mm )
12:56 am 00:56 Clear 33 0.6 26 -3.3 75 75 SSE 8 13 30.13 1020 10 16 0.00 0.00
1:56 am 01:56 Clear 33 0.6 26 -3.3 75 75 SE 8 13 30.13 1020 10 16 0.00 0.00
2:56 am 02:56 Clear 32 0 25 -3.9 75 75 SE 5 7 30.12 1020 10 16 0.00 0.00
3:56 am 03:56 Clear 31 -0.6 26 -3.3 82 82 E 7 11 30.12 1020 10 16 0.00 0.00
4:56 am 04:56 Clear 27 -2.8 23 -5 85 85 Calm 30.12 1020 10 16 0.00 0.00
5:56 am 05:56 Sunny 27 -2.8 23 -5 85 85 SE 5 7 30.13 1020 10 16 0.00 0.00
6:56 am 06:56 Sunny 39 3.9 30 -1.1 70 70 NE 7 11 30.12 1020 10 16 0.00 0.00
7:56 am 07:56 Sunny 47 8.3 34 1.1 61 61 ENE 9 15 30.12 1020 10 16 0.00 0.00
8:56 am 08:56 Sunny 53 11.7 35 1.7 51 51 ENE 5 7 30.13 1020 10 16 0.00 0.00
9:56 am 09:56 Sunny 59 15 35 1.7 41 41 VRB 3 6 30.11 1020 10 16 0.00 0.00
10:56 am 10:56 Sunny 63 17.2 31 -0.6 30 30 SSE 6 9 30.11 1020 10 16 0.00 0.00
11:56 am 11:56 Sunny 67 19.4 31 -0.6 26 26 Calm 30.09 1019 10 16 0.00 0.00
12:56 pm 12:56 Sunny 67 19.4 27 -2.8 22 22 Calm 30.07 1018 10 16 0.00 0.00
1:56 pm 13:56 Sunny 69 20.6 29 -1.7 22 22 SSW 6 9 30.04 1017 10 16 0.00 0.00
2:56 pm 14:56 Sunny 73 22.8 30 -1.1 20 20 undefined N/A 30.01 1016 10 16 0.00 0.00
3:56 pm 15:56 Sunny 73 22.8 30 -1.1 20 20 VRB 3 6 29.98 1015 10 16 0.00 0.00
4:56 pm 16:56 Sunny 74 23.3 29 -1.7 19 19 VRB 6 9 29.97 1015 10 16 0.00 0.00
5:56 pm 17:56 Sunny 74 23.3 30 -1.1 20 20 WNW 3 6 29.96 1015 10 16 0.00 0.00
6:56 pm 18:56 Sunny 73 22.8 30 -1.1 20 20 Calm 29.93 1013 10 16 0.00 0.00
7:56 pm 19:56 Clear 65 18.3 32 0 29 29 Calm 29.92 1013 10 16 0.00 0.00
8:56 pm 20:56 Clear 58 14.4 35 1.7 42 42 ENE 7 11 29.92 1013 10 16 0.00 0.00
9:56 pm 21:56 Clear 49 9.4 33 0.6 55 55 ESE 7 11 29.93 1014 10 16 0.00 0.00
10:56 pm 22:56 Clear 50 10 32 0 50 50 ESE 5 7 29.91 1013 10 16 0.00 0.00
11:56 pm 23:56 Clear 48 8.9 31 -0.6 52 52 E 3 6 29.90 1013 10 16 0.00 0.00

Powered by AerisWeather